Weather in Guiria

Venezuela     10°34′45″N   62°17′45″W
temp.,
°C
wind,
m/s
gust,
m/s
humid.,
%
clouds,
%
prec.,
mm/h
press.,
hPa
HPBL,
m
20 january, wed
wed2023:00+26ene5776100 0.1 1014971
02:00+26ene5675100 0.3 1013968
05:00+26ene4674100 0.1 1012896
08:00+26ene467161 0.1 1014980
11:00+26ese567278 0.0 10141006
14:00+26ene236885 0.0 1011480
17:00+27ene4571100 0.1 1010608
20:00+26ene677567 0.1 1012759
21 january, thu
thu2123:00+26e677671 0.0 1013826
02:00+26e567565 0.0 1013800
05:00+26ene56780 0.1 1013686
08:00+26ene57782 1.4 1014605
11:00+26e67803 0.1 1015639
14:00+26e347346 0.1 1012407
17:00+27ene457421 0.0 1010644
20:00+27e787910 0.0 1012873
22 january, fri
fri2223:00+26e78790 0.1 1013919
02:00+26e78800 0.1 1013828
05:00+26ene56780 0.1 1012606
08:00+26ene57780 0.1 1014751
11:00+26e457616 0.0 1014647
14:00+27e347636 0.1 1012402
17:00+27e237598 0.6 1011510
20:00+27ne247899 1.2 1013505
23 january, sat
sat2323:00+26n237993 0.4 1013338
02:00+26ene247796 2.4 1013474
05:00+26ne3578100 0.8 1013745
08:00+26ene4675100 0.9 1015898
11:00+27e467399 0.0 1015862
14:00+27e457599 1.0 1013800
17:00+27e467791 0.3 1011748
20:00+27e568096 0.4 1013727
24 january, sun
sun2423:00+26ene467873 0.0 1014804
02:00+26ene357786 0.1 1013601
05:00+26ne3478100 0.1 1012451
08:00+26ne3575100 0.1 1014541
11:00+26ene347462 0.1 1014532
14:00+27ene237080 0.1 1012463
17:00+27nne557132 0.0 1010745
20:00+26ne467716 0.1 1012668